When you browse on this site, cookies collect data to enhance your experience and personalize the content and advertising you see.
Visit our Privacy Policy to learn more. By continuing to use the site, you agree to this use of cookies and data.
  • In Romania
  • List of Countries
  • For 7 days
  • Water Temperature
  • Satellite Maps
  • Weather Map
  • Weather Widgets
  • user-avatar
    Login

    Hourly Weather Ascheffel

    Today, 25 April, Thursday

    Time Temperature Precipitation Wind Pressure Humidity
    00:00 +14°C° 0.2 mm 5 mps 751 mmHg 83%
    01:00 +14°C° 0.2 mm 5 mps 751 mmHg 86%
    02:00 +13°C° 0.8 mm 5 mps 751 mmHg 89%
    03:00 +12°C° 0.8 mm 4 mps 752 mmHg 92%
    04:00 +12°C° 0.8 mm 4 mps 752 mmHg 95%
    05:00 +12°C° 0.1 mm 4 mps 753 mmHg 94%
    06:00 +11°C° 0.1 mm 3 mps 753 mmHg 93%
    07:00 +12°C° 0.1 mm 2 mps 754 mmHg 92%
    08:00 +14°C° 0 mm 2 mps 754 mmHg 84%
    09:00 +15°C° 0 mm 2 mps 755 mmHg 76%
    10:00 +16°C° 0 mm 2 mps 755 mmHg 68%
    11:00 +18°C° 0 mm 3 mps 755 mmHg 62%
    12:00 +19°C° 0 mm 3 mps 755 mmHg 56%
    13:00 +20°C° 0 mm 3 mps 755 mmHg 50%
    14:00 +20°C° 0 mm 3 mps 755 mmHg 51%
    15:00 +20°C° 0 mm 3 mps 755 mmHg 52%
    16:00 +21°C° 0 mm 3 mps 755 mmHg 52%
    17:00 +19°C° 0 mm 3 mps 755 mmHg 60%
    18:00 +18°C° 0 mm 3 mps 755 mmHg 67%
    19:00 +16°C° 0 mm 3 mps 755 mmHg 74%
    20:00 +15°C° 0 mm 4 mps 755 mmHg 74%
    21:00 +14°C° 0 mm 4 mps 755 mmHg 74%
    22:00 +13°C° 0 mm 4 mps 756 mmHg 74%
    23:00 +13°C° 0 mm 5 mps 755 mmHg 77%

    Tomorrow, 26 April, Friday

    Time Temperature Precipitation Wind Pressure Humidity
    00:00 +12°C° 0 mm 5 mps 755 mmHg 79%
    01:00 +12°C° 0 mm 5 mps 755 mmHg 81%
    02:00 +12°C° 0 mm 5 mps 755 mmHg 80%
    03:00 +12°C° 0 mm 5 mps 755 mmHg 78%
    04:00 +12°C° 0 mm 5 mps 754 mmHg 77%
    05:00 +12°C° 0 mm 5 mps 755 mmHg 77%
    06:00 +12°C° 0 mm 4 mps 755 mmHg 77%
    07:00 +12°C° 0 mm 3 mps 755 mmHg 77%
    08:00 +13°C° 0.2 mm 3 mps 754 mmHg 76%
    09:00 +14°C° 0.2 mm 3 mps 754 mmHg 74%
    10:00 +16°C° 0.2 mm 2 mps 754 mmHg 72%
    11:00 +15°C° 0.7 mm 2 mps 754 mmHg 76%
    12:00 +15°C° 0.7 mm 2 mps 754 mmHg 79%
    13:00 +15°C° 0.7 mm 2 mps 754 mmHg 82%
    14:00 +15°C° 0.4 mm 2 mps 754 mmHg 82%
    15:00 +15°C° 0.4 mm 2 mps 754 mmHg 82%
    16:00 +15°C° 0.4 mm 2 mps 754 mmHg 82%
    17:00 +13°C° 0.2 mm 3 mps 754 mmHg 85%
    18:00 +12°C° 0.2 mm 4 mps 755 mmHg 88%
    19:00 +10°C° 0.2 mm 5 mps 755 mmHg 92%
    20:00 +9°C° 0.1 mm 5 mps 755 mmHg 92%
    21:00 +8°C° 0.1 mm 5 mps 755 mmHg 92%
    22:00 +8°C° 0.1 mm 5 mps 755 mmHg 92%
    23:00 +8°C° 0 mm 5 mps 755 mmHg 92%

    Day after tomorrow, 27 April, Saturday

    Time Temperature Precipitation Wind Pressure Humidity
    00:00 +7°C° 0 mm 5 mps 755 mmHg 92%
    01:00 +7°C° 0 mm 4 mps 755 mmHg 92%
    02:00 +7°C° 0 mm 4 mps 755 mmHg 93%
    03:00 +7°C° 0 mm 4 mps 755 mmHg 93%
    04:00 +7°C° 0 mm 4 mps 755 mmHg 94%
    05:00 +7°C° 0 mm 4 mps 755 mmHg 91%
    06:00 +8°C° 0 mm 4 mps 755 mmHg 88%
    07:00 +8°C° 0 mm 4 mps 755 mmHg 86%
    08:00 +8°C° 0.2 mm 4 mps 755 mmHg 86%
    09:00 +8°C° 0.2 mm 4 mps 754 mmHg 85%
    10:00 +10°C° 0.2 mm 4 mps 754 mmHg 85%
    11:00 +10°C° 0.7 mm 3 mps 754 mmHg 86%
    12:00 +10°C° 0.7 mm 3 mps 754 mmHg 87%
    13:00 +10°C° 0.7 mm 3 mps 754 mmHg 88%
    14:00 +10°C° 0.1 mm 3 mps 754 mmHg 86%
    15:00 +11°C° 0.1 mm 3 mps 754 mmHg 84%
    16:00 +11°C° 0.1 mm 3 mps 755 mmHg 83%
    17:00 +11°C° 0 mm 3 mps 755 mmHg 84%
    18:00 +10°C° 0 mm 2 mps 755 mmHg 86%
    19:00 +10°C° 0 mm 2 mps 755 mmHg 88%
    20:00 +9°C° 0 mm 2 mps 756 mmHg 91%
    21:00 +7°C° 0 mm 2 mps 756 mmHg 93%
    22:00 +6°C° 0 mm 2 mps 757 mmHg 96%
    23:00 +6°C° 0 mm 2 mps 757 mmHg 95%

    28 April, Sunday

    Time Temperature Precipitation Wind Pressure Humidity
    00:00 +7°C° 0 mm 1 mps 758 mmHg 95%
    01:00 +6°C° 0 mm 1 mps 758 mmHg 95%
    02:00 +6°C° 0 mm 1 mps 758 mmHg 95%
    03:00 +6°C° 0 mm 1 mps 759 mmHg 94%
    04:00 +6°C° 0 mm 1 mps 759 mmHg 94%
    05:00 +7°C° 0 mm 1 mps 760 mmHg 91%
    06:00 +8°C° 0 mm 1 mps 760 mmHg 89%
    07:00 +8°C° 0 mm 0 mps 760 mmHg 86%
    08:00 +10°C° 0 mm 0 mps 761 mmHg 79%
    09:00 +12°C° 0 mm 1 mps 762 mmHg 73%
    10:00 +14°C° 0 mm 1 mps 762 mmHg 66%
    11:00 +15°C° 0 mm 1 mps 762 mmHg 65%
    12:00 +15°C° 0 mm 2 mps 763 mmHg 64%
    13:00 +15°C° 0 mm 2 mps 763 mmHg 63%
    14:00 +15°C° 0 mm 2 mps 763 mmHg 65%
    15:00 +14°C° 0 mm 3 mps 763 mmHg 66%
    16:00 +14°C° 0 mm 3 mps 763 mmHg 67%
    17:00 +13°C° 0 mm 3 mps 763 mmHg 72%
    18:00 +12°C° 0 mm 3 mps 764 mmHg 76%
    19:00 +12°C° 0 mm 2 mps 764 mmHg 80%
    20:00 +11°C° 0 mm 3 mps 764 mmHg 82%
    21:00 +10°C° 0 mm 3 mps 764 mmHg 83%
    22:00 +10°C° 0 mm 3 mps 765 mmHg 84%
    23:00 +9°C° 0.3 mm 3 mps 765 mmHg 88%

    29 April, Monday

    Time Temperature Precipitation Wind Pressure Humidity
    00:00 +9°C° 0.3 mm 3 mps 765 mmHg 91%
    01:00 +9°C° 0.3 mm 3 mps 765 mmHg 95%
    02:00 +9°C° 0.2 mm 3 mps 765 mmHg 94%
    03:00 +8°C° 0.2 mm 4 mps 765 mmHg 93%
    04:00 +8°C° 0.2 mm 4 mps 765 mmHg 92%
    05:00 +7°C° 0 mm 5 mps 765 mmHg 89%
    06:00 +7°C° 0 mm 5 mps 765 mmHg 85%
    07:00 +6°C° 0 mm 5 mps 765 mmHg 82%
    08:00 +7°C° 0 mm 5 mps 765 mmHg 78%
    09:00 +8°C° 0 mm 6 mps 765 mmHg 73%
    10:00 +9°C° 0 mm 6 mps 765 mmHg 69%
    11:00 +10°C° 0 mm 6 mps 765 mmHg 69%
    12:00 +11°C° 0 mm 6 mps 765 mmHg 69%
    13:00 +11°C° 0 mm 6 mps 764 mmHg 69%
    14:00 +11°C° 0 mm 6 mps 764 mmHg 68%
    15:00 +13°C° 0 mm 6 mps 764 mmHg 67%
    16:00 +13°C° 0 mm 6 mps 764 mmHg 67%
    17:00 +11°C° 0 mm 6 mps 764 mmHg 68%
    18:00 +9°C° 0 mm 5 mps 764 mmHg 69%
    19:00 +8°C° 0 mm 5 mps 765 mmHg 70%
    20:00 +8°C° 0 mm 4 mps 765 mmHg 70%
    21:00 +7°C° 0 mm 4 mps 765 mmHg 70%
    22:00 +6°C° 0 mm 4 mps 766 mmHg 70%
    23:00 +6°C° 0 mm 4 mps 766 mmHg 72%

    30 April, Tuesday

    Time Temperature Precipitation Wind Pressure Humidity
    00:00 +5°C° 0 mm 4 mps 766 mmHg 73%
    01:00 +5°C° 0 mm 4 mps 766 mmHg 74%
    02:00 +5°C° 0 mm 4 mps 766 mmHg 75%
    03:00 +5°C° 0 mm 4 mps 765 mmHg 76%
    04:00 +5°C° 0 mm 4 mps 765 mmHg 76%
    05:00 +5°C° 0 mm 4 mps 765 mmHg 75%
    06:00 +6°C° 0 mm 5 mps 765 mmHg 74%
    07:00 +6°C° 0 mm 5 mps 766 mmHg 73%
    08:00 +8°C° 0 mm 5 mps 766 mmHg 70%
    09:00 +9°C° 0 mm 5 mps 766 mmHg 68%
    10:00 +10°C° 0 mm 6 mps 766 mmHg 66%
    11:00 +10°C° 0 mm 6 mps 765 mmHg 64%
    12:00 +11°C° 0 mm 6 mps 765 mmHg 62%
    13:00 +13°C° 0 mm 6 mps 765 mmHg 61%
    14:00 +11°C° 0 mm 6 mps 765 mmHg 61%
    15:00 +11°C° 0 mm 6 mps 765 mmHg 61%
    16:00 +11°C° 0 mm 6 mps 765 mmHg 60%
    17:00 +10°C° 0 mm 5 mps 765 mmHg 64%
    18:00 +9°C° 0 mm 5 mps 764 mmHg 68%
    19:00 +8°C° 0 mm 4 mps 764 mmHg 72%
    20:00 +7°C° 0 mm 4 mps 765 mmHg 75%
    21:00 +7°C° 0 mm 3 mps 765 mmHg 78%
    22:00 +4°C° 0 mm 3 mps 765 mmHg 82%
    23:00 +4°C° 0 mm 3 mps 765 mmHg 83%
    Show more